Time,TemperatureF,DewpointF,PressureIn,WindDirection,WindDirectionDegrees,WindSpeedMPH,WindSpeedGustMPH,Humidity,HourlyPrecipIn,Conditions,Clouds,dailyrainin,SoftwareType,DateUTC
2013-01-23 00:00:00,12.0,2.5,30.46,NNW,345,0.0,-999.0,65,0.00,,,0.00,Wunderground v.1.15,2013-01-23 06:00:00,
2013-01-23 00:05:00,11.8,2.6,30.46,NNW,345,0.0,-999.0,66,0.00,,,0.00,Wunderground v.1.15,2013-01-23 06:05:00,
2013-01-23 00:10:00,11.6,3.1,30.46,NNW,345,0.0,-999.0,68,0.00,,,0.00,Wunderground v.1.15,2013-01-23 06:10:00,
2013-01-23 00:15:00,11.5,3.3,30.46,NNW,345,0.0,-999.0,69,0.00,,,0.00,Wunderground v.1.15,2013-01-23 06:15:00,
2013-01-23 00:20:00,11.4,3.2,30.46,NNW,345,0.0,-999.0,69,0.00,,,0.00,Wunderground v.1.15,2013-01-23 06:20:00,
2013-01-23 00:25:00,11.3,3.4,30.46,NNW,345,0.0,-999.0,70,0.00,,,0.00,Wunderground v.1.15,2013-01-23 06:25:00,
2013-01-23 00:30:00,11.2,3.3,30.46,NNW,345,0.0,-999.0,70,0.00,,,0.00,Wunderground v.1.15,2013-01-23 06:30:00,
2013-01-23 00:40:00,11.2,4.2,30.45,NNW,345,0.0,-999.0,73,0.00,,,0.00,Wunderground v.1.15,2013-01-23 06:40:00,
2013-01-23 00:45:00,11.2,3.9,30.45,NNW,345,0.0,-999.0,72,0.00,,,0.00,Wunderground v.1.15,2013-01-23 06:45:00,
2013-01-23 00:50:00,11.0,3.1,30.45,NNW,345,0.0,-999.0,70,0.00,,,0.00,Wunderground v.1.15,2013-01-23 06:50:00,
2013-01-23 00:55:00,10.8,3.2,30.45,NNW,345,0.0,-999.0,71,0.00,,,0.00,Wunderground v.1.15,2013-01-23 06:55:00,
2013-01-23 01:00:00,10.7,3.1,30.45,NNW,345,0.0,-999.0,71,0.00,,,0.00,Wunderground v.1.15,2013-01-23 07:00:00,
2013-01-23 01:10:00,10.4,2.2,30.45,NNW,345,0.0,-999.0,69,0.00,,,0.00,Wunderground v.1.15,2013-01-23 07:10:00,
2013-01-23 01:15:00,10.4,2.9,30.45,NNW,345,0.0,-999.0,71,0.00,,,0.00,Wunderground v.1.15,2013-01-23 07:15:00,
2013-01-23 01:20:00,10.3,3.4,30.45,NNW,345,0.0,-999.0,73,0.00,,,0.00,Wunderground v.1.15,2013-01-23 07:20:00,
2013-01-23 01:25:00,10.1,3.5,30.45,NNW,345,0.0,-999.0,74,0.00,,,0.00,Wunderground v.1.15,2013-01-23 07:25:00,
2013-01-23 01:30:00,10.0,3.4,30.44,NNW,345,0.0,-999.0,74,0.00,,,0.00,Wunderground v.1.15,2013-01-23 07:30:00,
2013-01-23 01:35:00,9.9,3.6,30.44,NNW,345,0.0,-999.0,75,0.00,,,0.00,Wunderground v.1.15,2013-01-23 07:35:00,
2013-01-23 01:40:00,9.9,3.6,30.44,NNW,345,0.0,-999.0,75,0.00,,,0.00,Wunderground v.1.15,2013-01-23 07:40:00,
2013-01-23 01:45:00,9.8,3.7,30.44,NNW,345,0.0,-999.0,76,0.00,,,0.00,Wunderground v.1.15,2013-01-23 07:45:00,
2013-01-23 01:50:00,9.6,3.8,30.44,NNW,345,0.0,-999.0,77,0.00,,,0.00,Wunderground v.1.15,2013-01-23 07:50:00,
2013-01-23 01:55:00,9.6,4.1,30.44,NNW,345,0.0,-999.0,78,0.00,,,0.00,Wunderground v.1.15,2013-01-23 07:55:00,
2013-01-23 02:00:00,9.5,4.0,30.44,NNW,345,0.0,-999.0,78,0.00,,,0.00,Wunderground v.1.15,2013-01-23 08:00:00,
2013-01-23 02:05:00,9.5,4.3,30.45,NNW,345,0.0,-999.0,79,0.00,,,0.00,Wunderground v.1.15,2013-01-23 08:05:00,
2013-01-23 02:15:00,9.7,4.8,30.45,NNW,345,0.0,-999.0,80,0.00,,,0.00,Wunderground v.1.15,2013-01-23 08:15:00,
2013-01-23 02:20:00,9.8,5.1,30.45,NNW,345,0.0,-999.0,81,0.00,,,0.00,Wunderground v.1.15,2013-01-23 08:20:00,
2013-01-23 02:25:00,10.2,5.8,30.45,NNW,345,0.0,-999.0,82,0.00,,,0.00,Wunderground v.1.15,2013-01-23 08:25:00,
2013-01-23 02:30:00,10.5,5.8,30.45,NNW,345,0.0,-999.0,81,0.00,,,0.00,Wunderground v.1.15,2013-01-23 08:30:00,
2013-01-23 02:35:00,10.8,6.1,30.45,NNW,345,0.0,-999.0,81,0.00,,,0.00,Wunderground v.1.15,2013-01-23 08:35:00,
2013-01-23 02:40:00,11.1,6.4,30.45,NNW,345,0.0,-999.0,81,0.00,,,0.00,Wunderground v.1.15,2013-01-23 08:40:00,
2013-01-23 02:50:00,11.4,6.4,30.44,NNW,345,0.0,-999.0,80,0.00,,,0.00,Wunderground v.1.15,2013-01-23 08:50:00,
2013-01-23 02:55:00,11.6,6.6,30.44,NNW,345,0.0,-999.0,80,0.00,,,0.00,Wunderground v.1.15,2013-01-23 08:55:00,
2013-01-23 03:00:00,11.7,7.0,30.43,NNW,345,0.0,-999.0,81,0.00,,,0.00,Wunderground v.1.15,2013-01-23 09:00:00,
2013-01-23 03:05:00,11.9,7.2,30.44,NNW,345,0.0,-999.0,81,0.00,,,0.00,Wunderground v.1.15,2013-01-23 09:05:00,
2013-01-23 03:10:00,12.1,7.1,30.43,NNW,345,0.0,-999.0,80,0.00,,,0.00,Wunderground v.1.15,2013-01-23 09:10:00,
2013-01-23 03:15:00,12.1,7.1,30.43,NNW,345,0.0,-999.0,80,0.00,,,0.00,Wunderground v.1.15,2013-01-23 09:15:00,
2013-01-23 03:20:00,12.3,7.3,30.43,NNW,345,0.0,-999.0,80,0.00,,,0.00,Wunderground v.1.15,2013-01-23 09:20:00,
2013-01-23 03:25:00,12.5,7.2,30.43,NNW,345,0.0,-999.0,79,0.00,,,0.00,Wunderground v.1.15,2013-01-23 09:25:00,
2013-01-23 03:30:00,12.6,7.3,30.42,NNW,345,0.0,-999.0,79,0.00,,,0.00,Wunderground v.1.15,2013-01-23 09:30:00,
2013-01-23 03:35:00,12.7,7.1,30.42,NNW,345,0.0,-999.0,78,0.00,,,0.00,Wunderground v.1.15,2013-01-23 09:35:00,
2013-01-23 03:40:00,12.8,7.2,30.42,NNW,345,0.0,-999.0,78,0.00,,,0.00,Wunderground v.1.15,2013-01-23 09:40:00,
2013-01-23 03:45:00,13.0,7.4,30.42,NNW,345,0.0,-999.0,78,0.00,,,0.00,Wunderground v.1.15,2013-01-23 09:45:00,
2013-01-23 03:55:00,13.3,6.6,30.42,NNW,345,0.0,-999.0,74,0.00,,,0.00,Wunderground v.1.15,2013-01-23 09:55:00,
2013-01-23 04:00:00,13.6,6.2,30.42,NNW,345,0.0,-999.0,72,0.00,,,0.00,Wunderground v.1.15,2013-01-23 10:00:00,
2013-01-23 04:05:00,13.9,6.2,30.42,NNW,345,1.0,-999.0,71,0.00,,,0.00,Wunderground v.1.15,2013-01-23 10:05:00,
2013-01-23 04:10:00,14.1,6.4,30.42,NNW,345,0.0,-999.0,71,0.00,,,0.00,Wunderground v.1.15,2013-01-23 10:10:00,
2013-01-23 04:15:00,14.3,6.3,30.42,NNW,345,0.0,-999.0,70,0.00,,,0.00,Wunderground v.1.15,2013-01-23 10:15:00,
2013-01-23 04:25:00,14.4,6.1,30.42,NNW,345,0.0,-999.0,69,0.00,,,0.00,Wunderground v.1.15,2013-01-23 10:25:00,
2013-01-23 04:30:00,14.4,5.8,30.42,NNW,345,1.0,-999.0,68,0.00,,,0.00,Wunderground v.1.15,2013-01-23 10:30:00,
2013-01-23 04:35:00,14.4,6.1,30.41,WNW,302,1.0,-999.0,69,0.00,,,0.00,Wunderground v.1.15,2013-01-23 10:35:00,
2013-01-23 04:40:00,14.5,5.9,30.41,WNW,297,1.0,-999.0,68,0.00,,,0.00,Wunderground v.1.15,2013-01-23 10:40:00,
2013-01-23 04:45:00,14.5,5.9,30.41,WNW,297,1.0,-999.0,68,0.00,,,0.00,Wunderground v.1.15,2013-01-23 10:45:00,
2013-01-23 04:50:00,14.5,5.9,30.41,WNW,297,1.0,-999.0,68,0.00,,,0.00,Wunderground v.1.15,2013-01-23 10:50:00,
2013-01-23 04:59:00,14.5,5.9,30.40,WNW,297,1.0,-999.0,68,0.00,,,0.00,Wunderground v.1.15,2013-01-23 10:59:00,
2013-01-23 05:04:00,14.5,5.5,30.41,WNW,290,1.0,-999.0,67,0.00,,,0.00,Wunderground v.1.15,2013-01-23 11:04:00,
2013-01-23 05:09:00,14.5,5.2,30.41,WNW,285,1.0,-999.0,66,0.00,,,0.00,Wunderground v.1.15,2013-01-23 11:09:00,
2013-01-23 05:14:00,14.5,5.5,30.40,WNW,285,1.0,-999.0,67,0.00,,,0.00,Wunderground v.1.15,2013-01-23 11:14:00,
2013-01-23 05:19:00,14.5,4.9,30.41,WSW,247,2.0,-999.0,65,0.00,,,0.00,Wunderground v.1.15,2013-01-23 11:19:00,
2013-01-23 05:25:00,14.6,5.6,30.40,WSW,247,2.0,-999.0,67,0.00,,,0.00,Wunderground v.1.15,2013-01-23 11:25:00,
2013-01-23 05:30:00,14.6,5.3,30.40,WSW,247,1.0,-999.0,66,0.00,,,0.00,Wunderground v.1.15,2013-01-23 11:30:00,
2013-01-23 05:35:00,14.6,5.6,30.40,WSW,247,2.0,-999.0,67,0.00,,,0.00,Wunderground v.1.15,2013-01-23 11:35:00,
2013-01-23 05:40:00,14.5,5.5,30.40,WSW,247,2.0,-999.0,67,0.00,,,0.00,Wunderground v.1.15,2013-01-23 11:40:00,
2013-01-23 05:45:00,14.5,5.5,30.40,WSW,247,2.0,-999.0,67,0.00,,,0.00,Wunderground v.1.15,2013-01-23 11:45:00,
2013-01-23 05:50:00,14.6,5.6,30.40,WSW,247,1.0,-999.0,67,0.00,,,0.00,Wunderground v.1.15,2013-01-23 11:50:00,
2013-01-23 06:00:00,14.6,5.6,30.40,WSW,246,2.0,-999.0,67,0.00,,,0.00,Wunderground v.1.15,2013-01-23 12:00:00,
2013-01-23 06:05:00,14.6,5.6,30.40,WSW,246,2.0,-999.0,67,0.00,,,0.00,Wunderground v.1.15,2013-01-23 12:05:00,
2013-01-23 06:10:00,14.7,5.7,30.40,WSW,246,2.0,-999.0,67,0.00,,,0.00,Wunderground v.1.15,2013-01-23 12:10:00,
2013-01-23 06:15:00,14.8,6.1,30.39,WSW,246,1.0,-999.0,68,0.00,,,0.00,Wunderground v.1.15,2013-01-23 12:15:00,
2013-01-23 06:20:00,14.9,5.9,30.39,WSW,255,1.0,-999.0,67,0.00,,,0.00,Wunderground v.1.15,2013-01-23 12:20:00,
2013-01-23 06:25:00,14.9,5.6,30.39,WSW,251,2.0,-999.0,66,0.00,,,0.00,Wunderground v.1.15,2013-01-23 12:25:00,
2013-01-23 06:35:00,15.0,5.7,30.39,WSW,239,1.0,-999.0,66,0.00,,,0.00,Wunderground v.1.15,2013-01-23 12:35:00,
2013-01-23 06:40:00,15.1,5.8,30.39,WSW,241,1.0,-999.0,66,0.00,,,0.00,Wunderground v.1.15,2013-01-23 12:40:00,
2013-01-23 06:45:00,15.2,5.9,30.39,SSW,213,1.0,-999.0,66,0.00,,,0.00,Wunderground v.1.15,2013-01-23 12:45:00,
2013-01-23 06:50:00,15.2,5.5,30.40,SW,217,2.0,-999.0,65,0.00,,,0.00,Wunderground v.1.15,2013-01-23 12:50:00,
2013-01-23 06:55:00,15.2,5.9,30.40,SW,218,1.0,-999.0,66,0.00,,,0.00,Wunderground v.1.15,2013-01-23 12:55:00,
2013-01-23 07:05:00,15.3,5.6,30.39,SW,218,1.0,-999.0,65,0.00,,,0.00,Wunderground v.1.15,2013-01-23 13:05:00,
2013-01-23 07:10:00,15.4,5.7,30.39,SW,218,1.0,-999.0,65,0.00,,,0.00,Wunderground v.1.15,2013-01-23 13:10:00,
2013-01-23 07:15:00,15.3,5.6,30.39,SW,218,2.0,-999.0,65,0.00,,,0.00,Wunderground v.1.15,2013-01-23 13:15:00,
2013-01-23 07:20:00,15.4,6.1,30.39,SW,218,2.0,-999.0,66,0.00,,,0.00,Wunderground v.1.15,2013-01-23 13:20:00,
2013-01-23 07:25:00,15.4,5.7,30.38,SW,234,2.0,-999.0,65,0.00,,,0.00,Wunderground v.1.15,2013-01-23 13:25:00,
2013-01-23 07:30:00,15.3,5.3,30.39,SW,232,3.0,-999.0,64,0.00,,,0.00,Wunderground v.1.15,2013-01-23 13:30:00,
2013-01-23 07:40:00,15.5,5.8,30.38,SW,232,0.0,-999.0,65,0.00,,,0.00,Wunderground v.1.15,2013-01-23 13:40:00,
2013-01-23 07:45:00,15.6,5.9,30.38,SW,232,1.0,-999.0,65,0.00,,,0.00,Wunderground v.1.15,2013-01-23 13:45:00,
2013-01-23 07:50:00,15.7,6.0,30.37,SW,230,1.0,-999.0,65,0.00,,,0.00,Wunderground v.1.15,2013-01-23 13:50:00,
2013-01-23 07:55:00,15.8,5.8,30.37,SW,236,2.0,-999.0,64,0.00,,,0.00,Wunderground v.1.15,2013-01-23 13:55:00,
2013-01-23 08:00:00,15.9,5.5,30.37,WSW,237,3.0,-999.0,63,0.00,,,0.00,Wunderground v.1.15,2013-01-23 14:00:00,
2013-01-23 08:10:00,16.0,5.3,30.37,SW,215,3.0,-999.0,62,0.00,,,0.00,Wunderground v.1.15,2013-01-23 14:10:00,
2013-01-23 08:15:00,16.0,5.3,30.37,SW,217,3.0,-999.0,62,0.00,,,0.00,Wunderground v.1.15,2013-01-23 14:15:00,
2013-01-23 08:20:00,16.1,5.4,30.37,SW,236,3.0,-999.0,62,0.00,,,0.00,Wunderground v.1.15,2013-01-23 14:20:00,
2013-01-23 08:25:00,16.3,5.5,30.37,SW,223,3.0,-999.0,62,0.00,,,0.00,Wunderground v.1.15,2013-01-23 14:25:00,
2013-01-23 08:30:00,16.4,6.0,30.37,SW,224,2.0,-999.0,63,0.00,,,0.00,Wunderground v.1.15,2013-01-23 14:30:00,
2013-01-23 08:35:00,16.5,5.7,30.38,SW,219,2.0,-999.0,62,0.00,,,0.00,Wunderground v.1.15,2013-01-23 14:35:00,
2013-01-23 08:45:00,16.7,6.3,30.38,SW,228,2.0,-999.0,63,0.00,,,0.00,Wunderground v.1.15,2013-01-23 14:45:00,
2013-01-23 08:50:00,16.7,5.6,30.38,SW,214,2.0,-999.0,61,0.00,,,0.00,Wunderground v.1.15,2013-01-23 14:50:00,
2013-01-23 08:55:00,16.8,6.0,30.38,SW,223,2.0,-999.0,62,0.00,,,0.00,Wunderground v.1.15,2013-01-23 14:55:00,
2013-01-23 09:00:00,16.9,5.8,30.38,SW,217,3.0,-999.0,61,0.00,,,0.00,Wunderground v.1.15,2013-01-23 15:00:00,
2013-01-23 09:05:00,17.0,5.9,30.37,SSW,200,4.0,-999.0,61,0.00,,,0.00,Wunderground v.1.15,2013-01-23 15:05:00,
2013-01-23 09:15:00,17.1,5.9,30.38,WSW,241,3.0,-999.0,61,0.00,,,0.00,Wunderground v.1.15,2013-01-23 15:15:00,
2013-01-23 09:20:00,17.2,6.0,30.37,SSW,210,3.0,-999.0,61,0.00,,,0.00,Wunderground v.1.15,2013-01-23 15:20:00,
2013-01-23 09:25:00,17.5,6.3,30.38,SW,215,4.0,-999.0,61,0.00,,,0.00,Wunderground v.1.15,2013-01-23 15:25:00,
2013-01-23 09:30:00,17.6,6.1,30.38,SW,223,5.0,-999.0,60,0.00,,,0.00,Wunderground v.1.15,2013-01-23 15:30:00,
2013-01-23 09:35:00,17.9,6.3,30.37,SW,225,4.0,-999.0,60,0.00,,,0.00,Wunderground v.1.15,2013-01-23 15:35:00,
2013-01-23 09:40:00,18.0,6.8,30.37,SW,232,4.0,-999.0,61,0.00,,,0.00,Wunderground v.1.15,2013-01-23 15:40:00,
2013-01-23 09:45:00,18.2,6.6,30.37,SSW,202,4.0,-999.0,60,0.00,,,0.00,Wunderground v.1.15,2013-01-23 15:45:00,
2013-01-23 09:50:00,18.5,6.9,30.37,SW,221,4.0,-999.0,60,0.00,,,0.00,Wunderground v.1.15,2013-01-23 15:50:00,
2013-01-23 09:55:00,18.4,6.8,30.37,WSW,238,5.0,-999.0,60,0.00,,,0.00,Wunderground v.1.15,2013-01-23 15:55:00,
2013-01-23 10:00:00,18.4,7.2,30.38,SW,225,5.0,-999.0,61,0.00,,,0.00,Wunderground v.1.15,2013-01-23 16:00:00,
2013-01-23 10:05:00,18.8,7.6,30.37,SW,228,4.0,-999.0,61,0.00,,,0.00,Wunderground v.1.15,2013-01-23 16:05:00,
2013-01-23 10:10:00,19.1,7.5,30.36,WSW,237,4.0,-999.0,60,0.00,,,0.00,Wunderground v.1.15,2013-01-23 16:10:00,
2013-01-23 10:20:00,19.4,8.1,30.36,SW,228,4.0,-999.0,61,0.00,,,0.00,Wunderground v.1.15,2013-01-23 16:20:00,
2013-01-23 10:25:00,19.3,7.3,30.36,SW,232,4.0,-999.0,59,0.00,,,0.00,Wunderground v.1.15,2013-01-23 16:25:00,
2013-01-23 10:30:00,19.4,7.8,30.36,SW,222,5.0,-999.0,60,0.00,,,0.00,Wunderground v.1.15,2013-01-23 16:30:00,
2013-01-23 10:35:00,19.6,8.0,30.36,SW,225,5.0,-999.0,60,0.00,,,0.00,Wunderground v.1.15,2013-01-23 16:35:00,
2013-01-23 10:40:00,19.8,7.8,30.35,SW,227,5.0,-999.0,59,0.00,,,0.00,Wunderground v.1.15,2013-01-23 16:40:00,
2013-01-23 10:50:00,19.9,8.2,30.35,SW,227,5.0,-999.0,60,0.00,,,0.00,Wunderground v.1.15,2013-01-23 16:50:00,
2013-01-23 10:55:00,19.9,8.2,30.35,SSW,207,5.0,-999.0,60,0.00,,,0.00,Wunderground v.1.15,2013-01-23 16:55:00,
2013-01-23 11:00:00,19.9,8.6,30.35,SSW,202,6.0,-999.0,61,0.00,,,0.00,Wunderground v.1.15,2013-01-23 17:00:00,
2013-01-23 11:05:00,20.3,9.0,30.34,SW,218,5.0,-999.0,61,0.00,,,0.00,Wunderground v.1.15,2013-01-23 17:05:00,
2013-01-23 11:10:00,20.7,9.7,30.34,WSW,239,3.0,-999.0,62,0.00,,,0.00,Wunderground v.1.15,2013-01-23 17:10:00,
2013-01-23 11:15:00,20.7,9.0,30.34,SW,224,4.0,-999.0,60,0.00,,,0.00,Wunderground v.1.15,2013-01-23 17:15:00,
2013-01-23 11:25:00,21.1,9.4,30.33,SW,215,3.0,-999.0,60,0.00,,,0.00,Wunderground v.1.15,2013-01-23 17:25:00,
2013-01-23 11:30:00,21.3,9.9,30.33,WSW,238,3.0,-999.0,61,0.00,,,0.00,Wunderground v.1.15,2013-01-23 17:30:00,
2013-01-23 11:35:00,21.4,10.0,30.33,SW,229,4.0,-999.0,61,0.00,,,0.00,Wunderground v.1.15,2013-01-23 17:35:00,
2013-01-23 11:40:00,22.0,11.0,30.32,WSW,240,3.0,-999.0,62,0.00,,,0.00,Wunderground v.1.15,2013-01-23 17:40:00,
2013-01-23 11:45:00,22.2,10.4,30.32,SW,233,2.0,-999.0,60,0.00,,,0.00,Wunderground v.1.15,2013-01-23 17:45:00,
2013-01-23 11:55:00,22.5,10.3,30.30,SSW,207,4.0,-999.0,59,0.00,,,0.00,Wunderground v.1.15,2013-01-23 17:55:00,
2013-01-23 12:00:00,22.5,10.7,30.29,SW,219,4.0,-999.0,60,0.00,,,0.00,Wunderground v.1.15,2013-01-23 18:00:00,
2013-01-23 12:05:00,22.5,10.7,30.30,SW,221,5.0,-999.0,60,0.00,,,0.00,Wunderground v.1.15,2013-01-23 18:05:00,
2013-01-23 12:10:00,22.9,11.1,30.29,WSW,254,4.0,-999.0,60,0.00,,,0.00,Wunderground v.1.15,2013-01-23 18:10:00,
2013-01-23 12:15:00,23.4,11.5,30.29,WSW,239,3.0,-999.0,60,0.00,,,0.00,Wunderground v.1.15,2013-01-23 18:15:00,
2013-01-23 12:20:00,23.6,11.0,30.29,SSW,202,3.0,-999.0,58,0.00,,,0.00,Wunderground v.1.15,2013-01-23 18:20:00,
2013-01-23 12:25:00,23.5,11.3,30.28,WSW,246,4.0,-999.0,59,0.00,,,0.00,Wunderground v.1.15,2013-01-23 18:25:00,
2013-01-23 12:30:00,23.9,11.6,30.27,SW,224,4.0,-999.0,59,0.00,,,0.00,Wunderground v.1.15,2013-01-23 18:30:00,
2013-01-23 12:35:00,24.1,11.0,30.27,SW,229,5.0,-999.0,57,0.00,,,0.00,Wunderground v.1.15,2013-01-23 18:35:00,
2013-01-23 12:40:00,24.1,11.4,30.27,SSW,202,4.0,-999.0,58,0.00,,,0.00,Wunderground v.1.15,2013-01-23 18:40:00,
2013-01-23 12:45:00,24.2,11.5,30.27,SSW,211,4.0,-999.0,58,0.00,,,0.00,Wunderground v.1.15,2013-01-23 18:45:00,
2013-01-23 12:50:00,24.4,11.7,30.26,SW,227,5.0,-999.0,58,0.00,,,0.00,Wunderground v.1.15,2013-01-23 18:50:00,
2013-01-23 13:00:00,25.1,12.4,30.25,SW,230,3.0,-999.0,58,0.00,,,0.00,Wunderground v.1.15,2013-01-23 19:00:00,
2013-01-23 13:05:00,25.4,12.3,30.25,SW,226,3.0,-999.0,57,0.00,,,0.00,Wunderground v.1.15,2013-01-23 19:05:00,
2013-01-23 13:10:00,25.9,12.7,30.25,SW,225,3.0,-999.0,57,0.00,,,0.00,Wunderground v.1.15,2013-01-23 19:10:00,
2013-01-23 13:15:00,26.3,13.1,30.25,SW,225,3.0,-999.0,57,0.00,,,0.00,Wunderground v.1.15,2013-01-23 19:15:00,
2013-01-23 13:20:00,26.6,12.6,30.25,SSW,204,2.0,-999.0,55,0.00,,,0.00,Wunderground v.1.15,2013-01-23 19:20:00,
2013-01-23 13:30:00,27.6,13.5,30.24,SW,231,3.0,-999.0,55,0.00,,,0.00,Wunderground v.1.15,2013-01-23 19:30:00,
2013-01-23 13:35:00,28.0,13.5,30.24,WSW,242,3.0,-999.0,54,0.00,,,0.00,Wunderground v.1.15,2013-01-23 19:35:00,
2013-01-23 13:40:00,27.9,13.4,30.23,SW,233,4.0,-999.0,54,0.00,,,0.00,Wunderground v.1.15,2013-01-23 19:40:00,
2013-01-23 13:45:00,28.3,13.8,30.23,WSW,238,4.0,-999.0,54,0.00,,,0.00,Wunderground v.1.15,2013-01-23 19:45:00,
2013-01-23 13:50:00,28.9,14.3,30.23,SW,226,4.0,-999.0,54,0.00,,,0.00,Wunderground v.1.15,2013-01-23 19:50:00,
2013-01-23 13:55:00,29.7,14.6,30.22,SW,236,4.0,-999.0,53,0.00,,,0.00,Wunderground v.1.15,2013-01-23 19:55:00,
2013-01-23 14:05:00,29.9,14.4,30.22,SSW,209,3.0,-999.0,52,0.00,,,0.00,Wunderground v.1.15,2013-01-23 20:05:00,
2013-01-23 14:10:00,30.4,14.9,30.23,SW,221,3.0,-999.0,52,0.00,,,0.00,Wunderground v.1.15,2013-01-23 20:10:00,
2013-01-23 14:15:00,30.8,14.8,30.22,WSW,239,3.0,-999.0,51,0.00,,,0.00,Wunderground v.1.15,2013-01-23 20:15:00,
2013-01-23 14:20:00,30.9,14.9,30.22,SW,234,2.0,-999.0,51,0.00,,,0.00,Wunderground v.1.15,2013-01-23 20:20:00,
2013-01-23 14:25:00,31.2,15.2,30.21,West,271,2.0,-999.0,51,0.00,,,0.00,Wunderground v.1.15,2013-01-23 20:25:00,
2013-01-23 14:35:00,31.0,14.5,30.21,SW,227,3.0,-999.0,50,0.00,,,0.00,Wunderground v.1.15,2013-01-23 20:35:00,
2013-01-23 14:40:00,31.2,15.2,30.20,SW,236,3.0,-999.0,51,0.00,,,0.00,Wunderground v.1.15,2013-01-23 20:40:00,
2013-01-23 14:45:00,31.7,15.2,30.20,West,271,3.0,-999.0,50,0.00,,,0.00,Wunderground v.1.15,2013-01-23 20:45:00,
2013-01-23 14:50:00,33.0,15.9,30.20,West,281,4.0,-999.0,49,0.00,,,0.00,Wunderground v.1.15,2013-01-23 20:50:00,
2013-01-23 14:55:00,33.5,15.4,30.20,WSW,248,4.0,-999.0,47,0.00,,,0.00,Wunderground v.1.15,2013-01-23 20:55:00,
2013-01-23 15:00:00,32.5,15.0,30.20,WSW,251,4.0,-999.0,48,0.00,,,0.00,Wunderground v.1.15,2013-01-23 21:00:00,
2013-01-23 15:10:00,31.3,15.2,30.20,WNW,303,4.0,-999.0,51,0.00,,,0.00,Wunderground v.1.15,2013-01-23 21:10:00,
2013-01-23 15:15:00,31.3,15.7,30.20,NW,305,5.0,-999.0,52,0.00,,,0.00,Wunderground v.1.15,2013-01-23 21:15:00,
2013-01-23 15:20:00,32.0,15.9,30.20,West,269,4.0,-999.0,51,0.00,,,0.00,Wunderground v.1.15,2013-01-23 21:20:00,
2013-01-23 15:25:00,32.8,16.2,30.20,WSW,257,4.0,-999.0,50,0.00,,,0.00,Wunderground v.1.15,2013-01-23 21:25:00,
2013-01-23 15:30:00,32.3,15.3,30.20,WNW,288,4.0,-999.0,49,0.00,,,0.00,Wunderground v.1.15,2013-01-23 21:30:00,
2013-01-23 15:35:00,31.8,15.3,30.21,WNW,291,5.0,-999.0,50,0.00,,,0.00,Wunderground v.1.15,2013-01-23 21:35:00,
2013-01-23 15:40:00,31.9,15.8,30.21,NW,306,5.0,-999.0,51,0.00,,,0.00,Wunderground v.1.15,2013-01-23 21:40:00,
2013-01-23 15:45:00,31.7,15.6,30.21,WNW,302,5.0,-999.0,51,0.00,,,0.00,Wunderground v.1.15,2013-01-23 21:45:00,
2013-01-23 15:50:00,32.0,15.9,30.20,WNW,288,4.0,-999.0,51,0.00,,,0.00,Wunderground v.1.15,2013-01-23 21:50:00,
2013-01-23 15:55:00,32.1,15.5,30.20,West,281,4.0,-999.0,50,0.00,,,0.00,Wunderground v.1.15,2013-01-23 21:55:00,
2013-01-23 16:00:00,31.9,15.8,30.20,WNW,284,4.0,-999.0,51,0.00,,,0.00,Wunderground v.1.15,2013-01-23 22:00:00,
2013-01-23 16:05:00,31.7,15.6,30.20,WNW,290,4.0,-999.0,51,0.00,,,0.00,Wunderground v.1.15,2013-01-23 22:05:00,
2013-01-23 16:15:00,31.2,15.6,30.20,West,269,3.0,-999.0,52,0.00,,,0.00,Wunderground v.1.15,2013-01-23 22:15:00,
2013-01-23 16:20:00,31.0,15.8,30.20,West,277,3.0,-999.0,53,0.00,,,0.00,Wunderground v.1.15,2013-01-23 22:20:00,
2013-01-23 16:25:00,31.1,15.9,30.20,West,277,3.0,-999.0,53,0.00,,,0.00,Wunderground v.1.15,2013-01-23 22:25:00,
2013-01-23 16:30:00,31.1,16.4,30.20,WNW,288,4.0,-999.0,54,0.00,,,0.00,Wunderground v.1.15,2013-01-23 22:30:00,
2013-01-23 16:35:00,31.0,16.3,30.21,WNW,292,5.0,-999.0,54,0.00,,,0.00,Wunderground v.1.15,2013-01-23 22:35:00,
2013-01-23 16:45:00,30.7,16.4,30.21,WNW,284,5.0,-999.0,55,0.00,,,0.00,Wunderground v.1.15,2013-01-23 22:45:00,
2013-01-23 16:50:00,30.5,16.7,30.21,NW,307,3.0,-999.0,56,0.00,,,0.00,Wunderground v.1.15,2013-01-23 22:50:00,
2013-01-23 16:55:00,30.3,16.9,30.21,NW,308,2.0,-999.0,57,0.00,,,0.00,Wunderground v.1.15,2013-01-23 22:55:00,
2013-01-23 17:00:00,30.1,16.7,30.21,NW,311,2.0,-999.0,57,0.00,,,0.00,Wunderground v.1.15,2013-01-23 23:00:00,
2013-01-23 17:05:00,30.1,17.5,30.21,NW,309,5.0,-999.0,59,0.00,,,0.00,Wunderground v.1.15,2013-01-23 23:05:00,
2013-01-23 17:10:00,30.1,17.5,30.21,West,277,6.0,-999.0,59,0.00,,,0.00,Wunderground v.1.15,2013-01-23 23:10:00,
2013-01-23 17:19:00,29.8,17.2,30.21,NW,309,5.0,-999.0,59,0.00,,,0.00,Wunderground v.1.15,2013-01-23 23:19:00,
2013-01-23 17:24:00,29.7,17.1,30.21,WNW,303,6.0,-999.0,59,0.00,,,0.00,Wunderground v.1.15,2013-01-23 23:24:00,
2013-01-23 17:29:00,29.4,17.2,30.22,NW,318,5.0,-999.0,60,0.00,,,0.00,Wunderground v.1.15,2013-01-23 23:29:00,
2013-01-23 17:34:00,29.2,17.0,30.22,NW,321,5.0,-999.0,60,0.00,,,0.00,Wunderground v.1.15,2013-01-23 23:34:00,
2013-01-23 17:40:00,28.9,17.1,30.22,WNW,295,4.0,-999.0,61,0.00,,,0.00,Wunderground v.1.15,2013-01-23 23:40:00,
2013-01-23 17:45:00,28.8,17.0,30.23,WNW,302,4.0,-999.0,61,0.00,,,0.00,Wunderground v.1.15,2013-01-23 23:45:00,
2013-01-23 17:50:00,28.7,17.3,30.23,NW,325,4.0,-999.0,62,0.00,,,0.00,Wunderground v.1.15,2013-01-23 23:50:00,
2013-01-23 17:55:00,28.5,17.1,30.23,North,5,4.0,-999.0,62,0.00,,,0.00,Wunderground v.1.15,2013-01-23 23:55:00,
2013-01-23 18:00:00,28.2,17.2,30.23,NW,323,4.0,-999.0,63,0.00,,,0.00,Wunderground v.1.15,2013-01-24 00:00:00,
2013-01-23 18:10:00,28.0,17.4,30.24,NW,312,6.0,-999.0,64,0.00,,,0.00,Wunderground v.1.15,2013-01-24 00:10:00,
2013-01-23 18:15:00,27.9,17.3,30.24,WNW,285,6.0,-999.0,64,0.00,,,0.00,Wunderground v.1.15,2013-01-24 00:15:00,
2013-01-23 18:25:00,27.6,17.4,30.25,WNW,302,6.0,-999.0,65,0.00,,,0.00,Wunderground v.1.15,2013-01-24 00:25:00,
2013-01-23 18:30:00,27.5,17.3,30.25,NNW,338,5.0,-999.0,65,0.00,,,0.00,Wunderground v.1.15,2013-01-24 00:30:00,
2013-01-23 18:35:00,27.2,17.0,30.25,NW,322,5.0,-999.0,65,0.00,,,0.00,Wunderground v.1.15,2013-01-24 00:35:00,
2013-01-23 18:40:00,27.0,16.8,30.25,NW,320,5.0,-999.0,65,0.00,,,0.00,Wunderground v.1.15,2013-01-24 00:40:00,
2013-01-23 18:45:00,26.8,16.6,30.25,WNW,285,5.0,-999.0,65,0.00,,,0.00,Wunderground v.1.15,2013-01-24 00:45:00,
2013-01-23 18:50:00,26.6,16.4,30.26,North,360,5.0,-999.0,65,0.00,,,0.00,Wunderground v.1.15,2013-01-24 00:50:00,
2013-01-23 18:55:00,26.3,16.1,30.26,NNE,24,4.0,-999.0,65,0.00,,,0.00,Wunderground v.1.15,2013-01-24 00:55:00,
2013-01-23 19:00:00,26.1,16.3,30.26,WNW,288,4.0,-999.0,66,0.00,,,0.00,Wunderground v.1.15,2013-01-24 01:00:00,
2013-01-23 19:05:00,25.9,16.1,30.26,WNW,292,5.0,-999.0,66,0.00,,,0.00,Wunderground v.1.15,2013-01-24 01:05:00,
2013-01-23 19:10:00,25.7,15.9,30.26,North,5,4.0,-999.0,66,0.00,,,0.00,Wunderground v.1.15,2013-01-24 01:10:00,
2013-01-23 19:15:00,25.6,15.8,30.26,NW,322,4.0,-999.0,66,0.00,,,0.00,Wunderground v.1.15,2013-01-24 01:15:00,
2013-01-23 19:25:00,25.3,15.5,30.27,NW,313,4.0,-999.0,66,0.00,,,0.00,Wunderground v.1.15,2013-01-24 01:25:00,
2013-01-23 19:30:00,25.2,15.4,30.27,North,351,5.0,-999.0,66,0.00,,,0.00,Wunderground v.1.15,2013-01-24 01:30:00,
2013-01-23 19:35:00,25.1,15.3,30.28,NNW,344,5.0,-999.0,66,0.00,,,0.00,Wunderground v.1.15,2013-01-24 01:35:00,
2013-01-23 19:40:00,24.9,15.1,30.28,NW,315,4.0,-999.0,66,0.00,,,0.00,Wunderground v.1.15,2013-01-24 01:40:00,
2013-01-23 19:45:00,24.8,15.0,30.28,North,9,4.0,-999.0,66,0.00,,,0.00,Wunderground v.1.15,2013-01-24 01:45:00,
2013-01-23 19:50:00,24.6,14.9,30.28,NW,314,4.0,-999.0,66,0.00,,,0.00,Wunderground v.1.15,2013-01-24 01:50:00,
2013-01-23 20:00:00,24.2,14.8,30.28,NNW,340,4.0,-999.0,67,0.00,,,0.00,Wunderground v.1.15,2013-01-24 02:00:00,
2013-01-23 20:05:00,24.0,14.6,30.28,NW,321,6.0,-999.0,67,0.00,,,0.00,Wunderground v.1.15,2013-01-24 02:05:00,
2013-01-23 20:10:00,23.8,14.4,30.28,NNW,327,6.0,-999.0,67,0.00,,,0.00,Wunderground v.1.15,2013-01-24 02:10:00,
2013-01-23 20:15:00,23.8,14.4,30.29,NNW,333,6.0,-999.0,67,0.00,,,0.00,Wunderground v.1.15,2013-01-24 02:15:00,
2013-01-23 20:20:00,23.7,14.3,30.30,NNE,30,6.0,-999.0,67,0.00,,,0.00,Wunderground v.1.15,2013-01-24 02:20:00,
2013-01-23 20:30:00,23.4,14.0,30.31,NE,48,5.0,-999.0,67,0.00,,,0.00,Wunderground v.1.15,2013-01-24 02:30:00,
2013-01-23 20:35:00,23.1,13.8,30.31,NNE,15,5.0,-999.0,67,0.00,,,0.00,Wunderground v.1.15,2013-01-24 02:35:00,
2013-01-23 20:40:00,22.9,13.6,30.31,NNE,12,6.0,-999.0,67,0.00,,,0.00,Wunderground v.1.15,2013-01-24 02:40:00,
2013-01-23 20:45:00,22.6,13.3,30.31,NW,319,5.0,-999.0,67,0.00,,,0.00,Wunderground v.1.15,2013-01-24 02:45:00,
2013-01-23 20:50:00,22.5,12.8,30.32,NW,317,5.0,-999.0,66,0.00,,,0.00,Wunderground v.1.15,2013-01-24 02:50:00,
2013-01-23 20:55:00,22.2,14.5,30.32,NNE,30,5.0,-999.0,72,0.00,,,0.00,Wunderground v.1.15,2013-01-24 02:55:00,
2013-01-23 21:05:00,21.7,12.4,30.33,NNE,26,5.0,-999.0,67,0.00,,,0.00,Wunderground v.1.15,2013-01-24 03:05:00,
2013-01-23 21:10:00,21.5,12.2,30.33,North,355,6.0,-999.0,67,0.00,,,0.00,Wunderground v.1.15,2013-01-24 03:10:00,
2013-01-23 21:15:00,21.3,12.0,30.33,NNW,345,7.0,-999.0,67,0.00,,,0.00,Wunderground v.1.15,2013-01-24 03:15:00,
2013-01-23 21:20:00,21.1,11.8,30.33,NNE,22,8.0,-999.0,67,0.00,,,0.00,Wunderground v.1.15,2013-01-24 03:20:00,
2013-01-23 21:25:00,20.9,11.7,30.34,North,11,8.0,-999.0,67,0.00,,,0.00,Wunderground v.1.15,2013-01-24 03:25:00,
2013-01-23 21:30:00,20.6,11.4,30.34,NNE,12,8.0,-999.0,67,0.00,,,0.00,Wunderground v.1.15,2013-01-24 03:30:00,
2013-01-23 21:35:00,20.3,11.1,30.35,NNE,20,8.0,-999.0,67,0.00,,,0.00,Wunderground v.1.15,2013-01-24 03:35:00,
2013-01-23 21:40:00,20.2,11.0,30.35,NNE,26,8.0,-999.0,67,0.00,,,0.00,Wunderground v.1.15,2013-01-24 03:40:00,
2013-01-23 21:45:00,20.0,11.1,30.35,NNE,18,7.0,-999.0,68,0.00,,,0.00,Wunderground v.1.15,2013-01-24 03:45:00,
2013-01-23 21:50:00,19.7,10.8,30.36,NE,43,6.0,-999.0,68,0.00,,,0.00,Wunderground v.1.15,2013-01-24 03:50:00,
2013-01-23 21:55:00,19.4,10.6,30.36,North,5,7.0,-999.0,68,0.00,,,0.00,Wunderground v.1.15,2013-01-24 03:55:00,
2013-01-23 22:05:00,19.0,10.2,30.36,NNE,15,7.0,-999.0,68,0.00,,,0.00,Wunderground v.1.15,2013-01-24 04:05:00,
2013-01-23 22:10:00,18.7,10.2,30.37,North,5,6.0,-999.0,69,0.00,,,0.00,Wunderground v.1.15,2013-01-24 04:10:00,
2013-01-23 22:15:00,18.6,10.1,30.37,North,5,6.0,-999.0,69,0.00,,,0.00,Wunderground v.1.15,2013-01-24 04:15:00,
2013-01-23 22:20:00,18.4,9.9,30.37,NNE,16,6.0,-999.0,69,0.00,,,0.00,Wunderground v.1.15,2013-01-24 04:20:00,
2013-01-23 22:25:00,18.2,10.1,30.38,NNW,333,5.0,-999.0,70,0.00,,,0.00,Wunderground v.1.15,2013-01-24 04:25:00,
2013-01-23 22:30:00,18.1,10.0,30.38,NNE,17,5.0,-999.0,70,0.00,,,0.00,Wunderground v.1.15,2013-01-24 04:30:00,
2013-01-23 22:40:00,17.7,9.2,30.39,NNE,25,5.0,-999.0,69,0.00,,,0.00,Wunderground v.1.15,2013-01-24 04:40:00,
2013-01-23 22:45:00,17.5,9.1,30.39,NNW,345,5.0,-999.0,69,0.00,,,0.00,Wunderground v.1.15,2013-01-24 04:45:00,
2013-01-23 22:50:00,17.4,9.0,30.40,NNW,332,6.0,-999.0,69,0.00,,,0.00,Wunderground v.1.15,2013-01-24 04:50:00,
2013-01-23 22:55:00,17.3,8.9,30.40,North,360,7.0,-999.0,69,0.00,,,0.00,Wunderground v.1.15,2013-01-24 04:55:00,
2013-01-23 23:05:00,17.1,8.7,30.40,NNW,335,6.0,-999.0,69,0.00,,,0.00,Wunderground v.1.15,2013-01-24 05:05:00,
2013-01-23 23:10:00,16.9,8.8,30.41,North,355,6.0,-999.0,70,0.00,,,0.00,Wunderground v.1.15,2013-01-24 05:10:00,
2013-01-23 23:15:00,16.8,8.7,30.41,NNE,15,6.0,-999.0,70,0.00,,,0.00,Wunderground v.1.15,2013-01-24 05:15:00,
2013-01-23 23:20:00,16.8,8.7,30.42,NNE,25,5.0,-999.0,70,0.00,,,0.00,Wunderground v.1.15,2013-01-24 05:20:00,
2013-01-23 23:25:00,16.9,8.8,30.42,NW,312,6.0,-999.0,70,0.00,,,0.00,Wunderground v.1.15,2013-01-24 05:25:00,
2013-01-23 23:30:00,17.0,8.9,30.42,North,10,7.0,-999.0,70,0.00,,,0.00,Wunderground v.1.15,2013-01-24 05:30:00,
2013-01-23 23:35:00,17.1,9.3,30.42,NW,326,6.0,-999.0,71,0.00,,,0.00,Wunderground v.1.15,2013-01-24 05:35:00,
2013-01-23 23:40:00,17.1,9.3,30.43,NNE,16,6.0,-999.0,71,0.00,,,0.00,Wunderground v.1.15,2013-01-24 05:40:00,
2013-01-23 23:45:00,17.1,9.6,30.43,NE,51,6.0,-999.0,72,0.00,,,0.00,Wunderground v.1.15,2013-01-24 05:45:00,
2013-01-23 23:50:00,17.1,10.5,30.43,NNW,345,6.0,-999.0,75,0.00,,,0.00,Wunderground v.1.15,2013-01-24 05:50:00,
2013-01-23 23:55:00,17.0,10.7,30.43,NNE,13,8.0,-999.0,76,0.00,,,0.00,Wunderground v.1.15,2013-01-24 05:55:00,